Date String (YYYY-MM-DD hh:mm:ss) UTC,Instrument flags,Ambient pressure (hPa),Sample flow (lpm),Bypass flow (lpm),Sample temperature (°C),Ambient temperature (°C),ASC tube jacket temperature (°C),LED temperature (°C),Box temperature (°C),Sample RH (%),Span deviation,Mass concentration (μg/m³),Mass concentration (μg/m³),Mass concentration (μg/m³)
DateTimeUTC,F1_M11,P_M11,Q1_M11,Q2_M11,T1_M11,T2_M11,T3_M11,T4_M11,T5_M11,U1_M11,ZSPAN_M11,X0_M11,X2_M11,X1_M11
2022-04-07 10:00:00,,0833.1,4.99,0.00,21.8,21.2,00.0,30.8,23.4,06.6,0000.0,0004.80,0001.15,0000.62
2022-04-07 10:01:00,,0833.2,5.00,0.00,21.8,21.1,00.0,30.8,23.4,06.6,0000.0,0004.83,0001.15,0000.61
2022-04-07 10:02:00,,0833.2,5.00,0.00,21.7,21.0,00.0,30.8,23.3,06.7,0000.0,0004.88,0001.15,0000.60
2022-04-07 10:03:00,,0833.1,5.01,0.00,21.7,20.9,00.0,30.8,23.3,06.7,0000.0,0004.87,0001.15,0000.58
2022-04-07 10:04:00,,0833.1,5.00,0.00,21.7,20.8,00.0,30.8,23.3,06.7,0000.0,0004.84,0001.15,0000.58
2022-04-07 10:05:00,,0833.2,4.99,0.00,21.6,20.7,00.0,30.7,23.2,06.7,0000.0,0004.76,0001.14,0000.58
2022-04-07 10:06:00,,0833.1,4.99,0.00,21.6,20.7,00.0,30.7,23.2,06.7,0000.0,0004.83,0001.14,0000.58
2022-04-07 10:07:00,,0833.1,4.99,0.00,21.6,20.7,00.0,30.7,23.2,06.7,0000.0,0004.66,0001.13,0000.59
2022-04-07 10:08:00,,0833.1,5.01,0.00,21.6,20.7,00.0,30.7,23.2,06.7,0000.0,0005.14,0001.13,0000.59
2022-04-07 10:09:00,,0833.1,5.01,0.00,21.6,20.6,00.0,30.7,23.2,06.7,0000.0,0006.17,0001.13,0000.58
2022-04-07 10:10:00,,0833.2,5.00,0.00,21.5,20.7,00.0,30.7,23.2,06.7,0000.0,0004.68,0001.12,0000.57
2022-04-07 10:11:00,,0833.2,4.99,0.00,21.6,21.3,00.0,30.7,23.3,06.7,0000.0,0004.80,0001.12,0000.57
2022-04-07 10:12:00,,0833.1,5.01,0.00,21.8,22.3,00.0,30.7,23.7,06.7,0000.0,0005.18,0001.14,0000.56
2022-04-07 10:13:00,,0833.1,5.01,0.00,21.9,23.0,00.0,30.8,23.9,06.6,0000.0,0005.66,0001.14,0000.55
2022-04-07 10:14:00,,0833.2,4.99,0.00,22.0,22.9,00.0,30.8,23.9,06.5,0000.0,0005.63,0001.16,0000.57
2022-04-07 10:15:00,,0833.1,5.01,0.00,22.0,22.5,00.0,30.8,23.9,06.5,0000.0,0005.46,0001.14,0000.58
2022-04-07 10:16:00,,0833.1,4.98,0.00,22.0,22.2,00.0,30.8,23.8,06.5,0000.0,0005.77,0001.21,0000.59
2022-04-07 10:17:00,,0833.1,5.00,0.00,22.0,21.9,00.0,30.8,23.7,06.5,0000.0,0005.79,0001.23,0000.60
2022-04-07 10:18:00,,0833.2,5.01,0.00,21.9,21.7,00.0,30.8,23.6,06.5,0000.0,0005.93,0001.26,0000.59
2022-04-07 10:19:00,,0833.1,4.98,0.00,21.9,21.5,00.0,30.8,23.6,06.5,0000.0,0005.55,0001.31,0000.60
2022-04-07 10:20:00,,0833.2,5.01,0.00,21.8,21.3,00.0,30.8,23.4,06.6,0000.0,0004.47,0001.33,0000.61
2022-04-07 10:21:00,,0833.2,5.01,0.00,21.8,21.1,00.0,30.8,23.3,06.6,0000.0,0004.62,0001.39,0000.63
2022-04-07 10:22:00,,0833.1,5.00,0.00,21.7,21.0,00.0,30.8,23.2,06.6,0000.0,0004.77,0001.42,0000.64
2022-04-07 10:23:00,,0833.1,5.00,0.00,21.7,20.8,00.0,30.8,23.2,06.7,0000.0,0004.55,0001.39,0000.64
2022-04-07 10:24:00,,0833.2,5.00,0.00,21.6,20.7,00.0,30.7,23.2,06.7,0000.0,0005.06,0001.37,0000.64
2022-04-07 10:25:00,,0833.2,5.00,0.00,21.6,20.7,00.0,30.7,23.2,06.5,0000.0,0004.95,0001.33,0000.62
2022-04-07 10:26:00,,0833.2,5.00,0.00,21.6,20.7,00.0,30.7,23.2,06.5,0000.0,0004.87,0001.30,0000.59
2022-04-07 10:27:00,,0833.1,4.98,0.00,21.6,20.7,00.0,30.7,23.2,06.6,0000.0,0004.64,0001.29,0000.58
2022-04-07 10:28:00,,0833.1,5.00,0.00,21.5,20.7,00.0,30.7,23.2,06.6,0000.0,0005.06,0001.28,0000.56
2022-04-07 10:29:00,,0833.2,5.00,0.00,21.5,20.7,00.0,30.6,23.2,06.6,0000.0,0005.14,0001.24,0000.55
2022-04-07 10:30:00,,0833.1,5.01,0.00,21.6,20.7,00.0,30.6,23.3,06.5,0000.0,0005.43,0001.17,0000.53
2022-04-07 10:31:00,,0833.1,5.00,0.00,21.6,20.8,00.0,30.6,23.3,06.5,0000.0,0006.51,0001.08,0000.52
2022-04-07 10:32:00,,0833.1,5.00,0.00,21.6,21.6,00.0,30.6,23.4,06.5,0000.0,0007.34,0001.03,0000.49
2022-04-07 10:33:00,,0833.1,4.99,0.00,21.8,22.6,00.0,30.7,23.8,06.5,0000.0,0007.71,0000.98,0000.48
2022-04-07 10:34:00,,0833.1,5.00,0.00,22.0,23.2,00.0,30.7,24.0,06.4,0000.0,0007.59,0000.93,0000.47
2022-04-07 10:35:00,,0833.1,5.01,0.00,22.0,23.0,00.0,30.8,24.0,06.4,0000.0,0006.70,0000.92,0000.47
2022-04-07 10:36:00,,0833.2,4.99,0.00,22.1,22.7,00.0,30.8,24.0,06.4,0000.0,0006.73,0000.93,0000.45
2022-04-07 10:37:00,,0833.2,5.00,0.00,22.1,22.4,00.0,30.8,23.9,06.4,0000.0,0006.81,0000.96,0000.46
2022-04-07 10:38:00,,0833.1,5.02,0.00,22.0,22.1,00.0,30.8,23.8,06.4,0000.0,0007.20,0000.95,0000.46
2022-04-07 10:39:00,,0833.1,4.99,0.00,22.0,21.8,00.0,30.8,23.7,06.5,0000.0,0006.91,0000.91,0000.46
2022-04-07 10:40:00,,0833.0,5.01,0.00,21.9,21.5,00.0,30.8,23.5,06.4,0000.0,0006.63,0000.92,0000.45
2022-04-07 10:41:00,,0833.0,4.98,0.00,21.9,21.3,00.0,30.8,23.5,06.5,0000.0,0006.33,0000.97,0000.46
2022-04-07 10:42:00,,0833.1,5.00,0.00,21.8,21.2,00.0,30.8,23.4,06.5,0000.0,0004.78,0001.04,0000.47
2022-04-07 10:43:00,,0833.0,5.01,0.00,21.8,21.1,00.0,30.8,23.5,06.4,0000.0,0003.69,0001.00,0000.47
2022-04-07 10:44:00,,0833.0,5.00,0.00,21.8,21.1,00.0,30.8,23.5,06.5,0000.0,0002.85,0000.97,0000.47
2022-04-07 10:45:00,,0833.0,4.99,0.00,21.8,21.1,00.0,30.8,23.5,06.5,0000.0,0002.89,0000.99,0000.48
2022-04-07 10:46:00,,0833.1,5.00,0.00,21.8,21.1,00.0,30.8,23.5,06.5,0000.0,0002.77,0000.96,0000.48
2022-04-07 10:47:00,,0833.1,5.00,0.00,21.8,21.0,00.0,30.8,23.5,06.5,0000.0,0002.72,0000.95,0000.49
2022-04-07 10:48:00,,0833.0,5.00,0.00,21.8,21.0,00.0,30.8,23.5,06.5,0000.0,0002.96,0000.94,0000.49
2022-04-07 10:49:00,,0833.1,4.99,0.00,21.8,21.0,00.0,30.8,23.5,06.5,0000.0,0002.67,0000.92,0000.49
2022-04-07 10:50:00,,0833.0,5.01,0.00,21.8,21.0,00.0,30.8,23.5,06.5,0000.0,0002.52,0000.93,0000.50
2022-04-07 10:51:00,,0833.0,5.01,0.00,21.8,21.0,00.0,30.8,23.5,06.5,0000.0,0003.06,0000.91,0000.49
2022-04-07 10:52:00,,0833.0,4.98,0.00,21.8,21.1,00.0,30.8,23.5,06.5,0000.0,0003.11,0000.92,0000.49
2022-04-07 10:53:00,,0833.1,5.00,0.00,21.8,21.1,00.0,30.8,23.5,06.5,0000.0,0004.21,0000.94,0000.48
2022-04-07 10:54:00,,0833.1,5.01,0.00,21.8,21.1,00.0,30.8,23.5,06.5,0000.0,0004.42,0000.96,0000.49
2022-04-07 10:55:00,,0833.0,5.00,0.00,21.8,21.1,00.0,30.8,23.5,06.5,0000.0,0005.30,0001.02,0000.49
2022-04-07 10:56:00,,0833.1,5.00,0.00,21.8,21.1,00.0,30.8,23.6,06.5,0000.0,0006.24,0001.03,0000.49
2022-04-07 10:57:00,,0832.9,4.99,0.00,21.8,21.1,00.0,30.8,23.5,06.4,0000.0,0006.41,0001.03,0000.48
2022-04-07 10:58:00,,0832.8,5.00,0.00,21.8,21.1,00.0,30.8,23.5,06.4,0000.0,0006.48,0001.03,0000.48
2022-04-07 10:59:00,,0832.9,5.01,0.00,21.9,21.5,00.0,30.8,23.6,06.4,0000.0,0006.27,0001.04,0000.48
